Simultaneous Nadir Overpasses (SNOs) Predictions

Prediction of SNOs between NOAA-19 and METOP-C Satellite Orbit:

Table of predicted SNOs for the next 14.0 days since TLE Epoch: 5/3/2019
Index Date (NOAA-19) Time (NOAA-19) Lat,Lon (NOAA-19) SZA (NOAA-19 ) Date (METOP-C) Time (METOP-C) Lat,Lon (METOP-C) SZA (METOP-C ) Distance(km) Time Diff (sec)
1 05/07/2019 17:33:06 -79.31, 110.89 117.23 05/07/2019 17:34:17 -79.27, 112.58 117.17 35.32 71
2 05/07/2019 18:24:07 79.19, -80.77 62.70 05/07/2019 18:25:00 79.16, -80.84 62.68 3.09 53
3 05/07/2019 19:15:02 -79.16, 86.70 117.33 05/07/2019 19:15:41 -79.18, 86.63 117.30 2.63 39
4 05/07/2019 20:06:07 79.16,-106.04 62.67 05/07/2019 20:06:21 79.19,-106.02 62.69 2.72 14
5 05/07/2019 20:57:03 -79.17, 61.17 117.34 05/07/2019 20:57:03 -79.17, 61.19 117.34 0.41 0
6 05/07/2019 21:48:08 79.17,-131.58 62.65 05/07/2019 21:47:43 79.17,-131.46 62.66 2.53 25
7 05/07/2019 22:39:04 -79.17, 35.64 117.36 05/07/2019 22:38:25 -79.16, 35.75 117.38 2.91 39
8 05/07/2019 23:30:08 79.14,-156.84 62.62 05/07/2019 23:29:05 79.16,-156.90 62.62 2.54 63




NCC Satellite Simultaneous Nadir Overpasses (SNOs) Prediction Service
